GEFSNGP_500_meanwind_306.txt.gz
Wind_Speed
26 24 22 21 20 20 20 21 20 18 18 18 20 21 21 20 20 18 18 17 17 17 16 16 16 16 16 16 15 15 15 15 15 16 17 17 16 16 16 16 16 15 16 16
29 26 24 23 22 21 21 22 22 20 20 22 24 23 22 23 22 22 20 20 19 19 18 18 18 18 17 17 17 17 17 17 17 17 18 19 18 18 18 18 17 17 17 18
30 27 27 28 25 24 23 22 23 24 23 23 25 25 24 23 24 23 22 22 21 21 21 20 20 20 19 19 19 18 19 19 19 19 20 20 20 20 20 20 19 19 19 19
30 28 29 28 26 25 25 26 26 26 25 25 27 26 27 27 26 25 24 24 23 23 22 21 21 22 22 21 20 20 21 21 21 21 21 21 21 21 22 22 21 21 21 22
30 29 28 28 27 26 25 27 27 27 26 27 27 27 28 29 28 26 24 24 24 24 22 22 22 22 22 22 22 22 22 22 22 22 23 23 23 23 24 24 24 24 24 24
31 30 30 27 27 26 26 30 29 28 27 28 27 27 29 29 28 26 25 25 25 24 24 24 23 23 23 23 23 23 23 24 24 25 25 25 25 25 26 26 27 27 26 27
32 32 32 29 27 26 28 31 29 28 27 28 28 29 30 30 28 26 25 25 24 25 25 25 24 24 23 23 22 23 24 25 26 26 27 27 27 27 28 28 29 28 28 28
33 34 32 29 28 29 30 30 31 31 30 31 32 32 32 31 30 29 28 27 27 26 26 26 25 25 25 25 24 25 26 27 27 28 29 30 30 30 30 30 30 29 29 30
32 33 32 32 33 32 32 32 32 32 31 32 33 34 33 32 31 30 30 30 29 28 27 27 27 27 27 27 27 27 27 28 29 29 30 31 31 32 32 32 32 32 32 33
34 34 34 33 34 34 34 35 34 34 33 32 33 33 33 32 32 31 31 30 30 29 29 28 28 28 28 29 29 29 29 30 30 31 32 32 32 32 33 34 34 35 35 35
35 35 35 36 36 37 37 37 36 35 35 34 33 33 32 32 33 33 32 31 31 30 29 29 29 29 30 30 31 31 31 31 32 32 33 33 33 33 33 34 35 35 35 35
36 37 38 36 37 38 37 37 37 35 35 35 34 34 33 33 33 33 33 32 32 32 31 31 30 30 31 31 32 33 33 32 33 33 33 33 33 33 33 34 34 35 35 36
36 37 39 38 37 37 36 36 36 35 35 35 35 35 35 35 34 34 34 33 33 33 32 32 31 31 31 32 33 33 33 33 33 33 33 34 34 35 35 35 36 36 36 37
38 38 38 38 38 36 35 35 35 36 36 36 36 36 36 36 35 35 34 34 34 34 34 34 33 33 33 33 33 33 33 33 34 34 34 35 35 36 36 37 36 37 39 39
37 37 38 39 37 36 36 36 35 36 36 36 37 36 36 36 35 35 34 33 34 34 34 33 33 33 33 33 33 34 34 34 34 35 35 36 36 37 38 38 38 38 38 39
36 37 37 38 37 35 36 36 36 37 37 37 37 36 36 36 35 34 34 34 35 34 34 33 33 32 32 33 34 35 35 35 35 36 36 37 38 38 38 38 38 38 38 40
35 36 36 36 36 36 37 37 36 35 36 37 36 36 36 36 36 35 34 34 35 34 33 32 32 33 33 34 34 35 36 36 36 36 37 37 38 38 38 38 39 39 40 40
33 33 34 35 35 35 36 37 36 35 34 35 36 36 35 34 34 34 34 34 35 34 34 34 34 33 33 34 34 34 35 35 36 36 37 38 38 39 39 39 39 39 40 40
31 31 32 32 33 34 35 35 36 36 35 34 34 34 34 34 34 34 33 33 34 34 34 34 34 34 34 34 35 35 34 35 35 36 37 38 38 38 39 40 41 40 41 41
29 29 29 30 31 32 33 34 36 36 34 33 33 32 32 32 33 34 34 34 34 34 34 34 34 34 34 34 35 35 35 35 36 36 37 37 37 38 39 40 40 40 40 39
27 27 27 27 28 30 30 30 32 32 31 33 34 33 33 33 34 34 34 34 34 34 34 34 34 34 35 35 35 35 36 36 36 36 36 37 38 39 39 39 39 39 39 40
24 25 25 25 27 28 29 29 29 30 30 29 30 31 32 33 34 34 33 33 34 34 35 35 34 35 35 35 36 35 36 36 36 36 37 37 38 38 39 39 39 39 39 40
22 23 23 24 26 26 27 28 28 28 29 29 28 29 30 31 32 32 32 33 34 34 34 34 34 34 34 34 35 35 36 37 37 37 37 38 38 38 39 39 39 39 39 39
21 21 21 22 23 24 24 25 25 26 27 28 28 29 29 29 30 30 31 32 33 33 33 34 34 33 33 34 34 34 35 35 35 36 37 38 38 38 38 37 38 38 38 38
20 20 20 20 21 22 23 23 24 24 25 25 26 28 29 29 29 30 30 31 32 33 33 33 33 33 33 33 33 33 34 33 34 35 36 36 36 36 36 37 37 37 37 37
19 19 19 19 20 21 22 22 22 23 24 24 25 26 27 28 28 29 30 30 30 31 31 31 31 31 31 31 31 32 32 32 33 34 35 35 35 35 36 35 35 36 35 36
18 18 19 19 19 20 21 21 22 22 23 24 24 25 25 26 27 28 29 29 30 30 30 30 30 30 31 30 30 30 31 31 32 32 33 34 34 34 34 35 35 35 35 35

GEFSNGP_500_meanwind_312.txt.gz
Wind_Speed
28 27 26 26 24 24 22 21 22 21 21 19 17 17 17 17 17 16 16 15 14 14 14 14 14 14 14 14 14 14 14 13 13 13 13 14 14 14 14 14 14 15 15 16
29 28 28 28 27 26 25 24 23 22 21 19 19 19 19 19 19 18 18 18 17 17 17 17 16 17 17 17 17 16 15 15 15 15 15 15 15 16 16 16 16 17 17 18
30 30 30 29 27 27 27 25 24 23 21 20 21 20 20 21 21 21 20 20 20 20 19 19 19 19 19 19 19 18 17 16 17 17 17 17 17 17 17 18 18 18 19 19
31 31 32 29 27 27 26 26 26 25 24 23 22 22 23 24 23 22 22 22 22 22 22 21 20 21 21 21 21 20 19 19 19 19 19 19 18 19 19 19 20 20 20 20
33 32 31 29 28 28 28 28 27 27 26 25 24 24 25 25 24 24 24 24 24 23 23 22 22 22 23 23 22 21 21 20 20 20 20 20 20 21 21 21 21 22 22 22
34 34 33 30 30 30 30 31 29 29 28 28 27 26 25 26 26 26 26 26 25 24 24 24 23 23 24 24 23 22 22 22 22 21 21 22 23 23 24 24 24 24 24 25
34 35 34 32 31 31 32 33 31 31 30 29 28 27 27 28 29 28 29 28 27 26 26 26 25 25 25 25 24 23 23 23 23 23 23 24 25 26 26 26 26 26 26 26
34 35 34 33 33 33 33 33 33 32 31 30 29 28 28 28 29 30 30 29 28 28 28 27 26 26 26 26 25 25 25 25 25 25 26 26 27 27 27 28 27 27 28 28
35 34 32 33 34 34 34 34 34 33 32 31 30 29 27 28 30 31 31 31 31 30 29 28 28 28 27 26 27 27 27 27 27 28 28 28 28 28 28 29 29 29 29 29
32 33 33 33 33 34 34 34 35 35 34 32 31 30 30 31 31 32 32 31 31 31 31 30 29 29 28 28 28 28 28 28 29 29 29 29 29 30 30 30 30 30 31 31
33 33 34 34 34 34 34 34 35 36 36 35 35 34 34 33 33 33 32 32 32 32 31 31 31 30 30 30 29 29 30 30 30 30 29 30 31 30 30 30 31 31 32 31
33 33 33 33 33 34 35 35 35 36 35 35 35 35 34 33 34 34 34 33 33 33 32 31 30 30 31 31 31 31 31 31 31 32 32 32 32 31 31 31 32 32 32 33
33 33 33 33 33 34 35 36 36 34 35 35 35 35 35 35 35 35 35 34 34 33 33 31 31 31 31 31 31 31 32 32 32 32 33 33 33 33 33 33 33 33 33 33
34 34 35 35 34 35 36 36 35 35 36 36 36 35 35 36 35 35 35 34 34 33 32 32 32 33 33 33 33 33 33 34 34 34 34 35 35 34 34 33 34 34 34 35
35 35 36 36 36 37 37 36 36 36 36 37 37 37 36 36 35 35 35 34 34 33 32 32 33 33 34 34 34 34 34 34 34 34 34 35 35 34 34 35 35 35 35 35
36 37 37 37 36 35 35 36 36 36 37 37 38 37 37 37 36 36 35 34 34 33 33 33 33 34 35 35 35 34 34 34 34 34 34 35 35 34 35 35 35 35 35 35
36 36 36 36 36 35 35 35 36 36 36 37 38 38 38 37 36 36 36 36 35 34 34 34 34 35 35 35 35 35 35 34 33 33 33 33 33 33 34 35 35 35 36 37
33 34 34 34 35 35 35 35 35 35 35 36 36 37 37 36 36 36 36 35 35 35 35 36 36 36 36 35 35 35 34 34 33 33 33 33 33 33 34 35 36 36 37 38
31 31 31 31 31 33 34 34 34 34 34 35 36 36 36 36 35 35 35 35 35 34 34 35 36 36 35 35 34 33 33 33 33 33 33 32 33 33 34 34 35 35 35 35
28 29 30 30 31 31 32 32 33 35 35 35 35 36 36 36 35 35 35 35 33 33 34 35 35 34 34 33 32 32 32 32 33 33 32 33 34 34 35 35 35 34 34 35
25 26 28 29 29 29 29 30 30 31 32 33 33 34 35 36 35 35 34 33 32 31 32 33 33 33 33 32 32 31 31 31 31 32 33 34 34 35 35 35 34 34 35 35
23 24 26 27 27 27 27 28 29 29 30 31 32 32 33 33 33 33 33 31 30 30 32 31 31 31 32 32 32 31 31 31 32 33 34 34 35 35 35 35 34 35 36 37
21 22 23 23 24 25 25 25 26 27 28 28 29 29 30 30 29 29 29 29 30 30 31 31 31 30 31 31 30 30 31 32 33 33 34 35 35 35 35 35 35 36 37 38
19 19 20 21 22 23 23 24 24 25 26 27 27 27 28 27 26 27 28 28 28 29 29 29 28 28 29 28 29 29 30 31 32 33 34 34 34 35 34 35 35 36 36 37
18 17 17 18 20 21 22 22 22 23 23 24 24 25 26 26 26 26 26 26 26 27 27 27 27 27 27 28 28 29 30 30 31 31 32 33 33 33 33 34 35 36 36 37
17 18 18 18 18 19 20 21 21 22 22 23 24 24 24 24 24 24 24 24 25 24 24 25 26 26 27 27 28 28 28 29 30 31 31 32 32 32 33 34 35 35 36 37
16 16 17 18 18 18 19 20 20 21 21 22 22 22 23 23 23 23 23 23 23 24 25 26 26 27 27 28 28 28 28 29 30 30 30 31 32 33 33 33 34 35 35 35

GEFSNGP_500_meanwind_318.txt.gz
Wind_Speed
25 25 25 25 25 24 24 24 23 21 20 19 18 18 17 16 15 14 14 15 14 14 14 14 15 15 15 15 15 15 15 15 16 16 17 17 17 17 17 18 18 18 19 19
27 27 26 27 26 26 26 26 25 24 23 21 21 20 19 18 17 17 16 16 16 16 16 16 16 17 18 18 17 17 17 17 17 18 18 18 18 18 18 19 20 20 21 21
29 29 29 28 27 27 27 27 26 26 24 23 23 22 21 21 20 20 19 19 19 19 18 18 18 19 19 20 20 19 20 20 19 19 19 19 19 20 20 21 21 22 23 23
32 30 31 28 29 29 29 29 28 27 26 25 25 24 24 23 23 22 21 21 21 21 20 20 20 21 21 22 22 22 22 21 21 21 21 22 22 22 22 22 23 24 24 25
33 33 32 30 30 31 31 30 29 28 27 27 26 25 24 24 24 23 23 23 23 23 22 21 22 22 23 23 23 24 24 24 23 24 24 23 23 24 24 24 25 26 26 25
35 35 34 32 31 32 33 33 31 30 29 28 28 28 25 25 27 26 25 24 24 24 24 24 23 24 24 24 25 25 26 26 26 26 25 25 25 26 26 26 27 27 27 27
35 36 35 34 33 32 33 33 32 31 30 29 29 29 28 27 27 27 27 26 26 26 27 26 25 25 25 25 26 26 26 26 26 26 27 27 27 27 28 28 28 28 28 28
36 37 36 34 34 34 34 34 34 33 31 31 31 30 29 28 28 29 29 29 29 29 28 28 27 26 26 26 26 26 26 26 26 26 27 27 28 28 28 29 30 30 30 31
36 36 34 34 35 35 35 34 34 35 34 33 31 30 30 29 29 29 29 29 28 28 28 28 28 27 27 26 26 26 27 27 27 27 27 28 28 29 30 31 31 31 32 33
34 34 34 34 34 36 37 36 35 34 34 33 33 32 30 29 29 29 30 29 29 29 28 28 28 28 28 28 28 28 28 28 29 29 29 29 31 31 32 33 33 33 33 34
33 33 33 32 33 34 35 37 37 36 35 34 34 33 32 31 31 31 31 31 31 30 30 29 29 29 30 30 30 30 30 30 29 30 31 32 33 33 34 35 36 36 36 35
33 33 33 32 33 34 35 35 36 37 36 35 34 33 33 33 33 32 32 31 30 30 31 31 31 31 32 32 32 31 31 31 31 31 32 32 33 34 35 36 36 37 37 37
34 34 34 33 33 33 33 34 34 34 35 34 34 34 34 34 33 33 33 32 32 32 31 32 32 33 33 34 33 33 33 33 33 33 33 33 33 34 35 36 36 37 37 37
34 35 35 34 34 33 33 33 33 34 34 34 34 33 33 34 34 34 34 33 33 33 32 33 33 33 33 34 34 33 33 33 34 35 35 36 36 35 35 36 36 37 38 38
34 34 34 34 34 33 34 33 33 33 34 34 34 34 34 36 36 35 34 34 34 33 33 33 34 34 35 35 34 33 34 35 36 36 37 38 37 37 37 37 37 37 38 39
33 33 33 33 33 33 33 33 33 34 33 33 35 35 36 36 36 36 36 35 34 33 34 35 36 37 36 36 36 36 36 37 38 38 38 38 38 37 37 37 38 38 39 40
33 33 32 32 31 32 32 32 32 32 33 34 34 34 34 35 35 35 37 37 36 35 35 37 37 38 38 38 38 37 37 38 38 39 39 39 39 38 38 38 38 39 39 40
29 30 31 32 32 32 32 32 32 33 33 34 34 34 34 34 34 35 35 36 37 37 37 38 37 37 38 38 38 36 36 37 38 39 39 39 38 37 37 38 38 38 39 39
26 27 27 28 30 31 31 31 32 32 33 33 34 34 34 34 34 35 35 35 36 37 38 38 38 37 37 38 37 37 37 38 38 38 38 38 37 37 37 37 37 38 38 38
25 25 26 25 26 27 28 29 30 31 31 31 32 33 33 33 34 34 35 35 36 36 37 38 38 38 39 39 39 39 39 38 38 37 36 36 37 37 36 36 36 36 36 37
24 24 25 25 25 26 26 27 28 29 29 30 32 33 33 33 33 33 33 33 33 34 35 36 37 37 38 38 38 38 38 38 37 36 36 35 35 35 35 36 36 37 37 37
23 23 24 24 25 25 25 25 26 27 28 29 30 31 32 33 33 33 33 33 33 33 33 34 35 35 36 36 36 36 36 36 36 36 35 34 34 34 34 35 35 35 35 35
20 21 22 23 23 23 23 24 24 25 26 27 28 29 29 30 31 32 32 32 33 33 33 33 34 34 34 35 36 35 35 34 34 34 34 34 34 34 34 34 34 34 34 35
19 20 20 21 22 22 22 23 24 24 24 25 26 27 28 28 29 30 30 30 31 31 31 32 32 32 32 32 33 32 32 32 33 34 34 33 33 33 33 34 34 33 33 34
17 18 19 20 21 21 22 22 23 23 24 25 26 26 27 28 28 28 28 28 28 29 29 29 30 30 30 30 30 30 31 31 32 33 33 33 32 31 32 33 33 34 35 36
17 17 18 18 19 19 20 21 22 23 23 24 25 25 26 26 25 25 25 26 26 27 27 27 27 28 28 29 29 29 30 30 31 31 31 32 32 32 32 33 34 34 35 36
17 18 18 19 19 19 19 19 20 21 22 22 23 23 24 24 25 25 25 25 26 26 26 25 26 27 27 28 28 29 29 29 29 29 30 31 31 32 32 33 34 34 35 36

GEFSNGP_500_meanwind_324.txt.gz
Wind_Speed
21 21 21 20 19 19 20 19 18 18 17 17 17 17 16 16 16 16 16 16 16 16 16 15 16 16 15 15 16 16 16 16 16 16 16 17 17 17 18 19 19 20 20 20
22 22 22 21 21 21 21 21 20 20 20 19 20 19 19 18 18 18 18 18 18 18 18 18 18 18 18 18 17 17 17 17 18 18 18 18 18 19 19 20 20 20 21 21
23 22 23 23 23 23 22 21 22 22 22 21 22 22 21 21 20 20 20 20 19 20 20 20 20 20 20 20 20 19 19 19 19 19 19 19 19 20 20 21 21 21 22 22
25 26 25 25 25 25 24 24 24 25 25 24 23 23 23 22 22 22 22 21 20 21 21 22 22 21 21 21 21 21 21 21 21 21 21 21 21 22 23 23 23 22 23 23
28 27 28 28 27 27 27 27 27 27 26 25 25 26 26 25 25 24 24 23 23 23 23 23 23 23 23 22 22 23 22 22 22 22 23 23 23 23 23 23 23 23 23 24
30 29 28 29 29 28 28 29 28 28 28 27 27 27 28 27 27 27 27 26 26 25 25 24 25 25 24 24 23 23 22 22 23 24 24 24 25 24 24 24 25 25 26 26
30 31 30 31 31 29 30 30 30 29 29 29 29 30 30 29 29 29 29 29 29 28 27 26 26 26 25 25 24 24 24 24 25 26 26 26 26 26 26 26 26 27 27 28
31 31 31 32 32 31 32 32 31 32 31 31 30 30 31 31 31 31 31 31 30 29 28 28 27 27 26 26 26 26 26 26 27 27 27 27 27 27 28 28 28 28 28 29
32 32 32 32 32 32 32 32 33 33 32 31 31 31 32 32 33 32 31 31 30 30 30 29 29 28 28 27 27 28 28 29 29 28 29 29 29 29 29 29 29 29 30 31
32 32 32 32 32 32 32 33 32 32 32 31 31 32 32 33 34 33 32 31 31 30 30 31 30 29 29 28 28 29 30 30 30 30 30 30 30 30 31 31 31 32 32 33
33 33 32 32 32 32 32 32 32 32 32 32 32 32 33 34 34 32 31 31 31 31 31 31 31 31 31 30 29 30 30 31 32 31 32 32 32 32 32 32 32 32 33 33
31 31 32 31 31 32 31 31 32 32 32 32 32 32 33 33 33 32 30 30 31 31 31 31 31 32 32 32 32 32 32 32 33 33 33 33 34 34 34 34 33 32 32 33
31 31 31 31 31 31 32 32 31 31 32 31 32 32 32 32 31 32 32 31 32 32 32 32 32 32 32 33 33 33 33 33 33 33 34 34 34 34 35 35 35 34 34 34
30 30 31 31 31 32 32 32 32 32 32 32 31 31 31 32 31 31 31 32 33 33 33 33 33 33 33 33 34 34 33 33 34 35 35 35 35 36 36 36 36 36 36 36
30 30 30 31 31 31 31 31 31 31 32 32 31 31 32 31 31 31 32 33 33 34 34 34 34 33 33 33 33 34 34 34 35 36 36 36 36 37 37 37 37 37 38 38
28 29 29 30 29 29 30 31 30 30 30 31 31 31 32 32 32 32 32 33 34 34 33 34 34 33 33 33 34 34 35 36 36 36 36 36 36 37 37 37 38 38 39 38
28 28 28 29 29 30 30 31 30 30 31 31 32 33 32 32 33 33 34 34 34 34 34 34 34 34 34 34 35 35 36 37 37 37 37 37 37 37 38 38 38 39 39 38
27 27 27 28 28 29 29 29 30 31 32 33 33 32 32 32 33 34 34 35 34 34 34 34 35 35 35 35 34 35 35 36 36 36 36 37 37 38 39 40 39 38 38 37
25 25 26 27 28 28 28 28 29 30 32 33 33 33 32 32 32 33 33 34 34 34 34 35 35 37 37 36 36 36 35 36 37 37 37 38 38 38 38 38 37 37 37 38
24 24 24 25 27 27 28 28 28 29 30 30 31 31 31 31 32 33 33 33 33 34 34 35 36 37 37 37 37 37 37 38 39 38 37 37 37 37 37 37 37 37 37 37
21 21 22 23 24 25 26 26 27 28 29 28 29 29 29 29 31 32 33 33 33 33 33 34 34 34 35 35 36 37 37 37 37 37 37 37 37 37 37 36 36 36 36 37
19 19 20 21 21 22 23 24 25 26 26 27 27 28 28 29 30 30 30 31 31 32 33 33 33 32 32 33 34 34 34 35 35 35 35 35 36 36 36 36 36 36 37 37
18 18 18 18 19 21 22 22 23 24 24 25 26 27 27 27 27 28 28 28 29 29 30 30 31 31 31 32 32 32 32 33 32 33 34 34 35 36 36 36 36 36 36 36
17 18 18 18 18 19 20 21 21 22 22 23 24 25 25 25 25 26 26 26 27 28 28 29 29 30 31 32 32 32 32 32 32 32 33 33 34 35 35 34 34 35 35 35
17 17 17 17 17 17 18 19 19 20 21 21 22 23 23 24 24 25 26 26 26 27 27 27 28 28 29 30 31 32 32 32 32 31 32 32 33 33 33 33 33 33 34 34
16 17 16 16 16 16 17 17 18 19 20 21 22 22 23 23 24 25 25 26 26 27 27 27 28 28 29 29 30 31 31 31 31 32 32 32 32 33 33 32 32 32 33 33
15 16 16 17 17 17 17 18 18 19 20 20 21 21 22 23 24 24 24 25 25 26 26 27 27 28 29 29 30 30 31 31 31 31 31 31 30 30 30 31 31 32 32 32

GEFSNGP_500_meanwind_330.txt.gz
Wind_Speed
21 19 18 17 17 17 18 18 19 17 18 18 17 17 18 17 17 18 19 19 19 18 18 19 19 19 19 20 20 20 20 19 18 17 17 17 16 17 17 18 19 19 19 20
22 20 19 19 18 18 18 18 19 19 19 20 20 19 18 19 20 21 21 22 21 21 20 20 20 20 20 21 21 21 21 20 19 18 18 18 18 18 19 20 20 20 21 21
22 20 21 21 19 17 17 19 19 20 19 21 22 20 20 22 22 23 23 23 22 22 22 22 22 21 21 21 21 22 22 21 20 20 20 20 21 21 21 21 22 23 22 22
23 22 22 21 19 18 18 19 21 22 21 22 23 23 25 26 26 25 25 25 25 23 24 23 23 23 22 22 22 22 21 21 21 21 22 22 22 23 23 24 24 24 24 24
24 23 22 21 21 21 22 24 25 25 25 24 25 25 25 27 27 27 26 26 24 25 24 24 25 24 24 24 24 24 23 23 23 23 24 24 24 25 25 25 25 25 25 26
25 24 23 24 24 23 24 27 28 28 27 28 29 28 28 29 28 28 28 28 27 28 27 26 26 26 26 26 26 26 25 25 24 25 25 25 25 26 26 26 26 26 27 27
26 25 25 26 26 25 26 30 30 30 30 29 31 31 31 32 31 30 29 29 30 30 30 28 29 29 28 27 27 26 26 26 26 25 26 26 26 27 27 27 28 28 29 29
26 26 26 28 28 28 30 30 32 33 31 32 32 32 32 33 32 31 32 31 31 32 32 31 31 30 30 30 29 28 27 27 27 27 27 28 28 28 28 28 29 30 30 30
28 29 32 32 31 31 32 33 33 34 34 34 34 34 34 34 34 34 34 33 33 33 33 33 32 32 31 31 31 30 29 28 28 28 28 29 30 30 30 30 30 31 31 31
31 32 32 33 34 35 34 34 34 34 35 35 35 35 36 37 35 33 33 35 36 35 35 34 33 33 33 32 32 32 31 30 30 30 30 31 31 31 32 32 32 32 33 33
32 33 34 34 35 35 35 35 36 36 36 36 36 36 36 36 36 34 34 35 35 36 36 35 34 33 33 33 32 32 33 32 32 32 33 32 31 32 32 33 33 33 33 34
33 35 35 34 34 35 35 35 35 36 36 37 36 36 35 35 35 34 35 35 35 35 35 35 34 34 34 34 33 33 34 34 34 34 34 34 33 33 33 34 34 34 35 35
33 34 35 35 34 34 35 36 36 36 36 35 35 34 34 35 34 34 35 35 35 35 34 35 34 34 33 33 33 34 34 35 34 35 35 35 35 35 35 35 35 35 35 35
33 32 33 33 33 34 34 34 34 34 34 34 33 33 34 34 34 33 34 34 33 33 33 34 34 33 33 33 34 34 35 35 35 35 35 35 35 35 36 36 36 35 35 36
33 33 33 32 32 33 32 32 31 32 32 32 33 33 34 34 33 32 32 32 33 33 33 33 33 34 34 33 34 35 35 35 35 35 35 35 36 36 36 36 36 36 36 36
32 32 32 31 31 31 31 32 32 32 32 32 33 33 34 33 33 32 33 33 33 34 34 34 33 34 34 34 35 35 35 35 36 35 35 36 36 36 37 37 37 37 37 37
31 31 30 30 30 30 30 31 31 31 31 31 32 32 33 33 33 33 33 33 34 34 34 34 34 35 34 33 33 33 34 35 35 36 37 37 37 37 38 38 38 38 38 38
30 29 29 29 29 29 29 29 30 31 31 31 31 32 32 33 32 32 33 33 33 34 33 33 34 33 33 34 34 34 34 35 36 37 38 38 38 38 39 39 38 39 39 39
28 28 28 28 28 29 29 29 30 31 31 31 32 32 32 33 34 34 34 33 33 33 33 34 34 33 34 34 35 36 36 36 37 37 37 38 39 38 39 39 39 40 40 41
27 27 28 28 28 29 29 30 30 31 31 32 32 32 32 32 33 33 33 33 34 34 33 33 33 34 34 35 36 37 38 38 38 38 38 38 39 39 40 39 39 40 39 39
25 26 26 27 27 27 27 28 28 29 30 31 31 31 31 31 32 32 33 33 32 32 32 33 33 34 35 35 35 36 36 36 36 37 38 38 38 38 39 39 39 39 39 39
24 25 25 25 24 24 25 26 26 27 28 28 28 29 29 30 30 31 32 31 31 31 31 31 32 33 34 34 34 34 34 34 34 35 36 37 37 37 38 38 37 37 37 38
23 23 23 23 22 22 23 23 23 24 25 25 26 26 26 26 27 28 29 29 30 30 30 30 30 31 31 31 32 33 33 33 34 34 35 36 37 37 37 37 36 37 37 36
21 21 21 21 21 21 21 21 21 22 22 23 23 24 25 25 26 27 27 27 27 28 28 29 30 30 30 31 31 31 32 32 33 34 34 34 34 34 35 36 37 37 37 37
20 20 20 20 20 20 20 20 21 21 22 22 22 23 23 23 24 24 25 25 25 26 27 28 29 29 29 29 30 31 31 31 32 32 33 33 33 33 34 35 36 35 35 35
19 20 20 21 21 21 21 21 22 22 22 22 23 23 24 24 24 24 25 25 25 25 25 27 28 29 29 30 30 30 30 31 31 31 31 32 33 33 33 33 34 34 34 34
19 20 20 19 20 21 21 22 22 22 22 23 22 23 23 24 24 24 23 24 24 24 25 27 28 28 28 29 29 30 30 30 31 31 31 31 32 33 33 33 34 34 35 35

GEFSNGP_500_meanwind_336.txt.gz
Wind_Speed
21 21 21 21 19 19 18 18 17 17 18 17 16 15 14 15 16 16 16 16 15 14 14 14 14 15 15 15 15 15 16 15 14 14 14 14 15 15 15 15 16 16 17 18
22 22 22 22 22 21 19 19 19 19 18 18 19 17 17 18 18 17 17 17 17 16 16 17 18 17 17 17 17 17 17 17 17 16 16 16 17 17 18 19 19 19 19 20
24 23 23 23 22 23 22 22 21 21 21 20 19 20 20 20 20 20 20 20 19 18 18 18 20 19 18 19 19 19 19 18 18 18 18 18 19 19 20 21 21 21 21 22
25 25 25 23 24 24 24 23 23 23 23 22 22 22 23 23 23 24 23 22 23 22 21 21 22 23 23 23 22 22 21 20 20 20 20 21 22 22 22 22 22 22 23 23
26 26 25 24 24 25 25 25 25 24 24 24 22 23 24 26 26 26 26 25 25 24 23 24 25 25 25 23 23 23 23 22 22 22 22 22 22 22 22 23 23 24 24 25
27 27 26 24 24 24 25 26 26 25 24 24 24 24 25 25 26 27 27 26 25 25 24 25 26 27 26 24 24 24 25 25 24 24 24 24 24 23 24 24 24 25 25 26
27 28 27 26 24 25 26 26 25 25 25 25 26 26 27 28 27 28 27 27 27 26 27 27 27 26 26 26 26 26 26 26 26 26 26 26 25 25 25 25 25 25 26 27
29 29 28 27 27 26 26 26 27 27 27 27 27 27 28 28 29 29 29 29 29 29 30 30 30 29 28 28 28 28 28 28 28 28 27 26 26 25 25 26 26 26 26 26
29 29 29 29 28 27 27 27 27 28 29 30 30 29 29 29 30 30 31 30 31 31 31 31 31 30 30 30 30 31 31 30 30 30 29 27 27 27 27 27 28 28 27 27
27 28 29 29 29 29 28 29 29 29 30 30 30 31 31 31 31 31 32 32 32 32 31 32 32 32 32 32 33 33 34 33 31 30 30 29 29 30 29 29 29 29 29 29
28 28 28 29 28 28 29 31 31 31 31 31 32 32 33 33 33 33 33 33 32 32 33 31 32 32 32 33 33 33 33 32 31 31 31 31 31 31 30 30 30 30 30 30
30 30 30 30 30 29 29 30 31 31 32 33 33 34 34 34 34 34 34 34 33 33 33 33 32 32 32 32 32 31 31 32 32 32 32 32 31 31 31 31 31 31 32 32
30 31 31 31 30 30 30 29 30 30 31 31 32 32 33 33 33 33 33 34 34 34 33 33 33 32 32 32 31 31 31 32 32 32 32 31 31 31 31 31 32 33 34 34
32 32 31 31 31 31 31 31 31 29 29 30 30 31 31 31 31 31 32 32 33 34 34 35 34 33 33 32 32 32 32 32 32 32 32 32 32 32 32 33 33 34 35 36
33 32 32 31 31 31 31 31 30 29 30 31 31 32 31 31 31 31 31 32 33 34 35 35 34 33 33 32 32 31 31 32 32 32 32 33 33 33 34 34 35 35 36 36
32 32 31 31 31 31 31 31 30 30 30 31 31 31 31 31 31 31 31 32 33 33 33 33 33 33 33 33 33 32 32 32 32 33 33 33 34 34 35 35 36 36 37 37
30 30 30 30 31 31 31 30 30 30 30 30 30 30 30 31 31 30 31 32 32 32 32 32 32 33 33 34 33 34 34 33 33 33 33 34 35 36 36 37 37 38 38 39
29 29 30 30 30 30 30 30 30 30 30 30 31 31 31 30 30 30 31 32 31 31 31 31 32 32 33 33 33 33 34 34 34 34 34 35 36 37 37 38 38 39 39 39
28 28 28 28 29 29 30 30 30 29 29 29 29 30 30 30 30 30 30 29 29 29 29 29 30 31 32 33 33 33 33 34 34 35 36 36 37 38 39 39 40 40 40 40
26 26 27 27 27 27 27 28 27 27 28 28 27 27 28 28 29 29 29 29 28 28 28 28 29 30 31 30 31 32 34 34 34 35 37 37 37 37 38 39 39 40 40 40
25 25 26 25 25 25 26 25 25 26 26 26 27 27 27 28 28 28 28 28 28 28 28 28 28 28 29 29 30 31 31 32 33 35 36 36 37 37 38 39 39 39 39 39
23 23 24 24 24 25 25 25 25 25 25 26 27 27 27 27 27 27 27 28 28 27 27 26 26 27 27 27 28 29 30 30 31 32 33 34 35 36 36 36 36 37 38 38
22 21 22 23 23 24 25 25 25 25 25 26 26 26 26 26 27 27 27 27 27 27 26 25 26 26 27 27 27 28 29 30 30 31 32 32 33 33 34 34 34 35 35 36
20 20 21 21 22 23 23 24 24 24 24 25 26 25 25 25 25 25 26 26 27 27 27 27 27 27 28 28 28 28 29 30 30 31 31 31 31 32 32 32 33 34 34 35
19 19 19 20 21 22 22 23 23 24 24 24 24 24 24 24 24 24 24 25 26 26 26 26 27 27 28 28 28 29 29 30 30 30 30 30 31 32 32 33 33 33 33 34
19 19 19 20 21 21 21 21 22 23 23 23 23 23 23 24 23 24 24 25 25 26 26 26 27 27 27 28 29 29 29 29 29 29 29 30 30 31 32 33 33 33 33 32
18 18 19 19 19 20 20 21 21 22 22 22 22 22 22 23 23 24 24 25 25 25 25 26 26 27 28 29 29 28 28 28 28 28 29 29 30 30 31 32 32 32 31 31

GEFSNGP_500_meanwind_342.txt.gz
Wind_Speed
20 20 20 19 19 19 19 19 19 20 19 18 18 17 17 17 15 14 15 15 16 16 17 17 18 18 17 18 18 18 18 17 16 16 17 17 17 17 18 18 19 19 20 21
22 22 21 21 20 20 20 20 21 21 20 19 18 18 17 16 16 16 16 16 16 17 17 18 18 18 18 19 20 19 18 17 17 17 18 18 18 19 19 19 19 20 21 22
24 24 23 24 23 22 22 22 22 22 21 20 19 19 19 18 18 17 17 17 18 19 19 19 19 19 20 20 21 21 20 19 19 18 19 19 19 20 21 21 22 22 22 23
26 26 26 24 24 24 25 24 23 23 22 21 20 20 20 20 20 20 20 20 20 21 20 20 20 21 21 22 22 22 22 22 21 20 20 20 21 22 22 23 23 24 25 25
28 28 27 26 26 25 25 25 25 24 23 23 23 22 21 21 21 22 23 23 23 22 22 22 23 23 23 23 24 24 24 23 22 22 22 22 23 23 24 24 24 24 25 25
29 28 28 27 26 26 26 26 25 25 24 24 24 24 23 24 24 24 24 25 25 24 24 25 25 25 24 25 26 26 26 25 24 24 25 25 25 25 25 25 25 25 25 26
29 29 29 27 27 27 27 26 24 25 24 25 25 25 25 25 25 25 25 26 26 27 27 27 27 27 27 28 28 27 27 27 26 27 27 27 27 26 26 26 26 26 26 27
29 30 29 27 27 26 25 25 24 25 25 25 25 25 25 25 26 26 27 28 29 29 29 29 28 28 29 29 29 29 29 29 29 29 29 29 28 28 28 28 28 28 27 27
28 28 28 27 26 26 25 25 25 24 25 26 26 26 25 26 26 27 28 29 29 30 30 30 31 30 30 29 29 30 31 30 30 30 30 30 30 30 29 30 30 29 28 29
27 27 27 26 26 26 26 26 26 26 26 26 26 27 27 27 27 28 29 29 29 30 30 31 31 30 29 28 29 30 30 30 31 30 31 30 30 31 31 31 30 30 30 30
26 26 26 26 27 27 27 28 28 27 26 26 27 27 28 28 29 29 30 29 30 30 30 30 30 30 29 29 29 30 30 31 31 30 30 30 31 31 31 31 31 32 32 32
28 26 26 27 27 27 27 28 28 28 27 26 26 27 27 27 29 30 30 30 30 29 29 29 29 29 29 29 29 29 29 30 32 32 31 31 31 32 31 32 33 33 33 33
29 28 28 28 28 28 28 28 28 29 29 28 27 27 27 27 28 29 29 28 28 28 28 28 29 29 29 29 29 30 31 32 33 34 33 32 32 32 33 33 34 33 34 34
30 30 30 29 29 29 29 30 30 29 29 30 29 29 29 29 29 30 30 30 29 29 29 29 30 31 31 31 32 33 33 33 34 35 35 34 34 33 34 34 34 35 35 35
30 30 30 30 30 30 31 31 31 30 30 30 30 30 31 31 31 31 31 31 30 30 30 30 31 32 32 33 34 34 35 35 35 35 36 36 36 36 35 35 36 36 36 36
30 30 30 30 29 29 30 30 30 30 30 30 30 31 31 31 31 31 31 32 31 31 31 31 32 32 32 33 34 35 35 35 36 36 36 36 36 36 36 36 36 37 37 38
29 29 29 29 29 29 29 29 29 29 29 30 30 30 30 31 31 31 31 31 31 31 31 32 32 32 32 32 33 34 34 35 35 35 34 35 35 36 36 36 36 37 38 39
28 28 28 28 28 29 29 29 29 29 29 30 31 30 30 30 30 30 30 30 30 30 30 30 31 31 31 31 31 32 33 33 34 34 33 34 34 35 35 36 37 37 38 39
27 28 28 28 28 28 28 28 28 29 29 29 30 29 29 29 29 29 29 30 30 30 30 31 31 31 31 32 31 31 31 32 32 33 33 33 34 34 36 37 37 37 38 38
26 27 27 28 27 27 27 28 28 27 27 28 28 28 28 28 28 29 29 28 29 29 30 30 31 31 31 30 30 30 30 30 31 31 31 33 34 35 36 36 36 37 37 37
24 25 26 26 26 26 26 26 26 26 26 26 27 27 27 27 27 28 28 29 29 29 29 29 29 29 29 29 28 28 28 29 30 31 32 33 34 34 34 35 35 35 36 37
23 24 24 25 25 25 25 25 25 25 25 26 26 27 27 27 27 28 29 29 28 28 28 28 28 28 28 28 28 28 29 29 29 30 31 32 33 33 33 34 34 35 36 37
23 23 23 24 24 24 24 24 25 25 26 26 27 27 27 27 28 28 28 28 27 27 27 27 27 28 28 28 28 28 29 29 30 30 30 31 31 32 32 33 34 34 35 35
23 23 23 23 24 24 24 24 24 24 25 25 26 26 27 27 27 27 27 27 27 27 27 27 27 27 27 27 28 28 29 29 29 30 30 31 31 32 32 32 33 34 34 34
22 23 23 23 23 23 23 23 23 24 24 25 25 25 26 26 26 26 26 26 26 26 26 26 27 27 28 28 29 29 29 29 30 31 31 32 32 33 33 33 33 33 33 33
21 21 21 22 22 22 22 22 22 23 23 24 25 25 25 25 25 25 25 25 26 26 26 26 27 27 28 28 29 29 29 30 30 31 32 32 32 32 32 32 32 32 33 33
20 20 20 21 21 22 22 22 23 23 23 23 24 24 25 25 25 25 26 26 26 26 26 27 27 28 28 28 28 29 29 30 31 31 31 31 32 32 32 32 32 32 32 32

GEFSNGP_500_meanwind_348.txt.gz
Wind_Speed
21 20 20 19 18 17 17 16 15 15 14 15 15 16 16 16 16 16 15 15 15 15 16 17 18 18 18 19 19 20 21 21 21 21 20 21 21 21 20 19 19 20 20 21
22 22 21 21 20 19 19 18 18 17 16 16 17 17 18 18 18 17 17 17 17 17 18 18 19 20 20 20 21 21 21 21 21 21 21 21 20 20 19 19 20 21 22 22
22 22 22 22 21 20 20 20 19 18 18 18 19 19 19 19 19 19 19 19 19 19 20 20 21 21 22 21 21 21 21 21 22 23 22 21 21 20 19 20 21 22 23 24
23 23 23 22 21 21 21 21 21 21 20 20 20 20 20 20 20 21 21 21 21 21 22 22 22 22 21 22 22 22 22 22 23 24 23 22 22 22 21 22 23 23 24 24
24 23 23 23 22 21 22 23 23 23 22 21 21 21 21 21 22 22 22 22 23 23 23 23 23 23 23 24 24 24 23 24 24 24 24 24 24 24 24 24 24 25 26 26
26 24 24 23 23 22 23 24 24 24 23 23 22 22 22 22 23 24 24 24 24 24 25 25 24 24 25 26 26 26 26 25 25 25 25 25 26 26 26 25 25 26 26 26
26 25 25 24 24 23 24 24 24 24 24 24 24 24 24 24 24 25 25 25 26 26 26 26 27 27 27 27 27 27 27 27 27 27 27 27 27 27 27 27 27 27 26 26
26 25 25 25 26 25 25 24 24 24 24 25 25 25 25 25 25 25 26 26 27 27 27 28 28 28 29 29 29 28 29 29 29 29 28 28 28 28 27 28 28 27 27 27
27 27 27 26 26 26 26 25 25 25 25 25 26 26 26 26 26 26 26 27 28 29 29 29 29 29 30 30 30 30 30 31 31 30 29 29 29 29 29 29 28 28 29 29
29 28 28 28 27 26 26 26 26 25 25 25 25 26 26 26 27 27 28 28 29 29 29 30 31 31 31 32 32 32 32 31 31 30 29 30 30 30 29 28 29 29 29 29
28 29 29 29 28 28 27 27 26 26 25 25 26 26 27 28 28 28 29 29 30 30 30 31 31 32 33 34 34 34 33 32 31 30 29 30 30 29 29 29 29 30 30 30
28 28 28 27 27 28 28 27 27 27 27 26 27 27 27 28 28 29 29 30 31 31 31 32 32 33 33 33 34 33 33 33 33 32 31 31 30 30 30 29 30 30 31 31
29 28 28 28 28 28 28 28 28 28 28 28 28 28 28 28 28 29 30 30 31 31 32 32 33 33 34 33 33 33 33 33 32 32 32 31 30 30 30 30 30 31 31 32
29 29 29 28 28 28 28 29 29 29 29 29 29 28 28 29 29 29 29 30 31 31 31 32 33 33 33 33 33 33 33 34 33 32 31 31 30 30 30 31 31 31 32 32
27 27 28 29 29 29 29 29 29 29 29 29 29 29 29 29 29 30 30 30 30 30 31 31 31 32 32 32 32 33 33 33 33 33 32 32 31 30 31 31 31 32 32 33
25 25 26 27 28 28 29 29 29 28 29 29 29 30 30 30 30 30 30 30 31 31 31 31 31 30 30 30 31 32 32 32 32 32 32 32 32 31 30 30 31 31 32 33
25 25 26 26 26 26 27 27 27 27 28 28 28 29 30 30 30 30 29 30 30 31 31 31 31 31 30 31 30 31 30 30 30 30 31 31 31 31 30 30 30 31 32 34
26 26 26 26 25 25 25 27 27 27 27 27 27 27 27 27 28 28 29 29 30 30 30 30 31 30 30 30 30 30 30 30 30 30 30 31 31 31 31 31 31 31 32 32
25 25 25 25 24 24 25 25 26 26 26 26 26 26 26 27 28 28 28 29 29 30 30 30 30 30 30 30 29 29 30 30 30 29 29 30 30 31 31 31 31 32 33 33
25 24 24 24 24 24 24 24 24 25 25 25 26 26 27 27 28 28 28 28 28 29 29 29 29 30 30 29 28 28 28 28 28 28 28 28 29 30 31 32 32 33 34 34
24 24 24 24 24 24 23 23 24 25 25 25 25 26 26 27 28 28 28 27 27 28 28 27 28 28 28 27 27 28 28 27 27 27 28 28 29 30 30 31 32 33 34 34
24 24 24 24 24 23 23 23 24 24 25 25 25 26 26 27 27 27 27 27 27 27 27 26 26 26 26 26 26 27 27 27 26 26 27 27 28 29 30 31 32 33 33 33
23 23 24 24 24 24 24 24 24 24 25 25 25 25 26 26 26 26 26 26 26 26 26 25 25 25 25 26 26 26 26 26 26 26 27 28 28 29 30 31 32 33 33 33
22 23 23 23 23 23 23 24 24 25 24 25 25 25 25 25 25 26 26 25 25 25 25 25 25 25 26 26 27 27 27 27 27 28 28 29 29 29 30 31 31 31 32 32
21 21 21 21 21 22 22 23 24 24 24 24 24 24 24 24 25 26 26 25 25 25 26 26 26 27 27 27 27 27 27 28 29 29 29 30 30 30 31 31 32 32 32 31
19 19 20 21 21 21 21 22 23 23 23 23 23 23 24 24 25 25 25 25 25 25 26 26 26 26 27 27 27 28 28 29 29 29 30 30 31 31 32 32 33 33 32 32
18 18 18 19 20 21 21 21 22 22 23 23 24 23 24 24 25 25 25 24 24 25 25 25 25 26 27 28 28 28 29 29 29 29 30 30 30 31 31 31 31 32 32 32